Cloud_Cover
100 100 100 100 100 100 100 100 100 100 100 100 100 100 100 100 100 100 100 100 100 100 94 19 6 5 3 3 2 5 4 5 1 72 0 1 5 5 5 5 50 1 0
100 100 100 100 100 100 100 100 100 100 100 100 100 100 100 100 100 100 100 100 100 100 100 43 99 99 96 56 7 1 0 3 5 18 1 0 0 5 0 5 5 23 7
90 100 100 100 100 100 100 100 100 100 100 100 100 100 100 100 100 100 100 100 100 100 100 53 100 100 100 100 84 97 4 7 22 5 5 0 0 0 0 0 1 5 6
83 75 100 92 100 100 100 100 100 100 100 100 100 100 100 100 100 100 100 100 100 100 100 100 100 60 72 100 93 65 61 75 74 80 10 5 1 3 12 9 0 0 0
100 86 99 58 52 100 100 100 100 100 100 100 100 100 100 100 100 100 100 100 100 100 100 100 99 94 99 91 100 100 94 100 99 85 94 13 20 98 99 87 95 48 0
20 1 2 89 100 100 100 100 100 100 100 100 100 100 100 100 100 100 100 100 100 100 100 100 100 100 100 100 100 100 100 39 96 100 100 100 100 100 100 100 100 86 95
29 9 5 5 76 100 100 34 100 100 100 100 100 100 100 100 100 100 100 100 100 100 100 100 100 100 100 100 100 100 100 100 100 100 100 100 100 100 100 100 100 100 100
76 21 49 34 59 28 60 100 100 100 100 95 95 100 100 100 88 81 99 96 51 50 77 91 100 30 45 90 100 100 100 98 100 100 100 100 100 100 100 100 100 100 100
100 33 49 100 100 92 15 14 18 48 96 100 52 68 100 100 100 100 100 100 100 100 47 1 0 2 2 9 5 67 96 100 100 100 61 41 28 98 72 100 100 98 100
87 9 58 83 2 0 3 10 5 0 0 0 94 100 39 5 54 15 27 0 2 4 5 14 1 0 0 0 0 0 3 5 8 70 6 39 37 89 97 100 100 100 100
12 66 61 62 80 8 2 0 0 0 0 0 0 2 1 0 0 3 2 2 1 23 47 97 90 4 0 0 1 0 0 0 2 7 57 33 1 0 6 48 100 100 100
50 70 61 31 17 5 4 1 0 0 0 0 0 0 0 0 0 0 0 35 4 5 5 5 6 3 0 0 17 53 55 0 0 1 5 5 5 5 5 9 26 75 56
0 0 0 0 0 0 0 0 0 25 21 7 29 26 53 28 42 13 0 5 5 6 5 5 5 5 5 5 5 12 6 0 0 0 0 5 5 3 10 63 36 18 68
0 0 0 0 0 0 0 2 19 53 41 44 62 100 100 100 100 100 100 100 68 11 6 6 90 76 8 5 13 4 0 0 0 0 0 4 1 5 5 5 5 3 10
0 0 0 1 2 0 0 0 1 0 0 5 11 20 49 66 63 22 20 7 13 5 6 5 47 100 100 100 100 90 52 98 97 89 89 95 100 100 94 80 92 100 97
0 0 0 0 0 0 1 0 0 0 0 0 0 0 0 0 0 0 4 5 5 5 12 5 5 5 34 96 79 94 100 100 100 100 100 100 72 78 100 95 100 100 100
0 0 0 0 0 0 0 0 0 2 5 5 4 0 18 0 4 5 9 89 83 54 49 100 95 58 42 77 19 8 42 38 26 58 100 100 94 52 100 100 100 100 100
0 0 0 0 0 0 0 0 0 4 5 1 24 4 5 5 5 23 92 52 5 30 5 6 32 22 58 96 100 100 100 100 98 54 9 11 32 11 24 51 100 100 97
0 0 0 0 0 1 5 5 5 5 5 5 22 35 12 17 5 8 8 5 9 5 22 14 39 68 51 38 33 61 85 98 84 80 97 83 5 6 12 42 91 100 100
0 0 0 0 4 5 5 5 5 6 6 33 58 56 8 6 17 5 5 26 22 67 100 83 68 82 90 100 100 100 58 21 56 86 100 84 97 100 100 44 13 98 96
5 3 5 5 5 5 5 5 5 5 5 6 94 99 76 44 36 53 100 100 100 97 96 100 100 100 100 100 100 100 100 100 100 100 100 100 100 100 100 100 88 7 94
5 5 5 5 5 5 8 8 7 19 88 100 100 100 100 100 100 100 100 100 100 100 100 100 100 100 100 100 100 100 100 100 100 100 100 100 100 100 100 100 96 100 98
5 5 5 5 30 23 58 99 100 100 100 100 100 100 100 100 100 100 100 100 100 100 100 100 100 100 85 58 59 42 55 87 87 100 100 100 100 100 100 100 100 100 100
5 5 5 5 15 23 58 99 100 92 88 100 100 100 100 100 100 100 100 100 100 100 100 100 100 100 100 99 99 78 64 12 3 18 94 100 98 84 99 100 100 100 100
5 5 5 5 17 65 100 84 39 7 64 77 71 63 100 100 100 100 100 99 96 100 99 65 78 94 91 91 2 2 50 36 27 61 0 29 65 69 64 59 100 99 100
5 5 5 5 5 29 62 84 70 62 21 78 95 98 97 63 77 88 92 82 77 58 61 92 95 95 25 16 7 63 56 19 36 84 12 4 32 90 100 82 88 94 99